Погода в Бомнаке

Погода в Бомнаке : погода сейчас, прогноз погоды и архив. Всё, что Вы хотите узнать о погоде в Бомнаке!

Поиск расширенной информации на нашем сайте:

Другие новости

Новости СМИ2

Главная страница сайта

Новости сайта

03.07.2017

Напоминаем, что на нашем специализированном сайте Метеоцентр.Азия вы можете получить высокодетализированные автоматические прогнозы погоды по пунктам России, СНГ и мира в авиационном формате (включающие направление и скорость ветра, видимость, явления погоды, количество и форму облачности, нижнюю и верхнюю границу облачности).


Погода в Бомнаке - сегодня

Время (UTC), дата Ветер
(°,м/с) 
Видим.   Явления Облачность Т
(°С)
Тd
(°С)
f(%) Тe
(°С)
Pmin
(гПа)
dP
(гПа)
Po
(мм)
O2
(г/м3)
Тmin Tmax R s Состояние
почвы
18 18.01.18 тихо ()   20000 м    ясно 
-35.1 -38.9 68 -35  1024.5  0.6  729  339           
21 18.01.18 110 (В) 20000 м    10/0 верхняя 
[Cs]
-33.7 -37.3 70 -35  1024.5  0.3  730  337           
00 19.01.18 тихо ()   20000 м  {снег}  10/0 верхняя 
[Cs]
-33.5 -37.1 70 -34  1024.6  0.2  730  337  -35.4    0.2  22  равномерный
сухой снег
100% 
03 19.01.18 тихо ()   20000 м    10/0 верхняя 
[Ci fib]
-29.9 -33.3 72 -30  1023.5  -0.3  729  332           
06 19.01.18 220 (ЮЗ) 20000 м    10/0 верхняя 
[Ci fib]
-27.1 -30.8 71 -28  1022  -0.8  729  328           
09 19.01.18 170 (Ю) 20000 м    10/0 верхняя 
[Ci fib]
-27 -30.1 75 -28  1022.1  0.1  729  328           
12 19.01.18 100 (В) 10 км  слаб. снег  10/0 верхняя 
[Cs]
-27.8 -30.8 76 -28  1022.5  0.2  729  329    -26.6  0.2     
15 19.01.18 340 (С) 4000 м  слаб. снег  10/0 средняя 
[As op]
-26 -28.7 78 -27  1021.7  -0.4  729  326           
18 19.01.18 тихо ()   4000 м  слаб. снег  10/0 средняя 
[As op]
-27.6 -30.6 76 -28  1022.2  0.1  729  329           
21 19.01.18 330 (СЗ) 2000 м  снег  10/0 средняя 
[As op]
-27.5 -30.5 76 -31  1021.8  -0.4  729  328           
00 20.01.18 320 (СЗ) 4000 м  слаб. снег  10/0 средняя 
[As op]
-25.6 -28.3 78 -29  1021.9  0.5  729  326  -28.1    0.5  23  равномерный
сухой снег
100% 
03 20.01.18 090 (В) 10 км  слаб. снег  10/0 верхняя 
[Cs]
-24.5 -27.3 77 -25  1022.4  0.7  729  325           
06 20.01.18 180 (Ю) 20000 м  {снег}  10/0 средняя, верхняя 
[Ac trans|Cs]
-23.1 -25.8 78 -24  1022.2  0.1  730  323           
09 20.01.18 260 (З) 20000 м    6/0 верхняя 
[Ci fib]
-24.6 -27.2 79 -25  1023  0.4  730  325           
12 20.01.18 330 (СЗ) 20000 м    6/0 верхняя 
[Ci fib]
-25.5 -28.8 74 -29  1023.8  0.6  730  326    -21.4  0.2     
15 20.01.18 тихо ()   20000 м    3/0 верхняя 
[Ci fib]
-29.9 -33.1 74 -30  1024.9  0.1  730  332           
18 20.01.18 210 (ЮЗ) 20000 м    3/0 верхняя 
[Ci fib]
-32.2 -35.6 72 -33  1025.6  0.2  731  336           
21 20.01.18 270 (З) 20000 м    1/0 верхняя 
[Ci fib]
-34.3 -37.9 70 -35  1025.6  -0.5  730  338           
00 21.01.18 140 (ЮВ) 20000 м    3/0 средняя, верхняя 
[Ac trans|Ci fib]
-36.2 -40.1 67 -37  1026.5  0.5  731  341  -36.2      23  равномерный
сухой снег
100% 
03 21.01.18 210 (ЮЗ) 20000 м    ясно 
-31.8 -35.6 69 -36  1025  -0.5  730  335  -36.6         
06 21.01.18 200 (Ю) 20000 м    ясно 
-29.2 -33.6 66 -33  1023.2  -1.2  729  331           
09 21.01.18 190 (Ю) 20000 м    ясно 
-30.3 -34.1 69 -31  1022.3  -1  729  332           
12 21.01.18 360 (С) 20000 м    ясно 
-32.9 -36.6 70 -34  1022  -0.9  728  335    -28.7       
15 21.01.18 тихо ()   20000 м    ясно 
-36.2 -40 68 -36  1021.8  -0.8  727  340           
18 21.01.18 160 (Ю) 20000 м    ясно 
-38.1 -42.1 66 -39  1021.8  -0.4  727  342           
Время (UTC), дата Ветер
(°,м/с) 
Видим.   Явления Облачность Т
(°С)
Тd
(°С)
f(%) Тe
(°С)
Pmin
(гПа)
dP
(гПа)
Po
(мм)
O2
(г/м3)
Тmin Tmax R s Состояние
почвы

Для получения пояснительной информации подведите курсор к названию столбца.

ПОГОДА в Бомнаке - архив

Всё, что Вы хотите узнать о погоде в Бомнаке - удобно и подробно!

Выберите нужную дату (начиная с 1 января 2015* года) и нажмите кнопку "Найти".
Будут отображены архивные сводки погоды по пункту Бомнак, начиная с указанной даты.


Отображать данные в формате CSV (для использования в таблицах Excel)


Внимание! Наш архив погоды предназначен исключительно для личного некоммерческого использования в познавательных целях. Если Вам необходимы официальные справки о состоянии погоды (для производственных, юридических, коммерческих и т.п. целей), обращайтесь в органы Росгидромета.

*Примечание: данная дата относится к архиву по метеостанциям СССР (Россия, СНГ, Балтия).
Архив по метеостанциям Зарубежной Европы и Азии (кроме Китая) хранится 10 дней, по другим регионам земного шара (Китай, Африка, Америка, Австралия, Океания) - 1 день.

Бомнак - район местоположения метеостанции


Название, широта, долгота, высота метеостанции:
Бомнак 54.7°ш. 128.9°д. 357 м над ур. моря [Российская Федерация]

Дополнительная информация

В oтличие oт бoльшинства пoгoдных сайтoв мы публикуем пoдрoбную метеoинфoрмацию в детальнoм прoфессиoнальнoм фoрмате.

Характеристики температуры и влажнoсти вoздуха измеряются на высoте 2 м в тени вдали oт зданий и деревьев.
Скoрoсть ветра измеряется на высoте 10 м (на урoвне рoста челoвека скoрoсть ветра ниже в 1.5-2 раза). Если метеoстанция нахoдится в гoрoде или в лесу, тo скoрoсть ветра занижена на 2-4 м/с пo сравнению с oткрытым местoм. Скoрoсть ветра над акватoриями крупных рек и oзёр, а также на вершинах хoлмoв на 2-5 м/с выше, чем в oбычных услoвиях.
Атмoсфернoе давление в разных тoчках местнoсти мoжет значительнo oтличаться oт давления на метеoстанции, в зависимoсти oт услoвий рельефа (при пoдъёме на 10 м давление пoнижается примернo на 1 мм рт.ст.).